Theta_e
310 313 314 315 314 315 313 313 314 314 314 313 313 313 313 312 312 312 313 313 313 313 313 312 312 312 312 313 313 313 313 312 312 312 312 312 313 313 313 314 314 313 312 310
311 313 314 312 310 311 312 313 314 315 313 310 313 313 313 314 313 313 312 313 313 313 313 312 313 313 313 312 312 311 311 311 311 311 311 311 311 312 312 312 313 313 313 311
315 316 311 310 312 311 312 312 314 314 312 312 312 317 315 315 312 312 311 311 312 313 313 312 312 313 313 312 312 312 312 312 311 310 310 310 309 310 310 311 312 312 312 311
312 311 310 310 311 312 313 313 311 311 312 316 311 317 317 316 315 314 313 312 312 312 312 312 312 311 310 311 311 311 310 310 310 309 309 308 308 308 309 308 309 310 311 311
314 310 309 311 312 310 313 309 310 310 312 311 314 313 318 314 316 314 313 312 312 312 310 309 307 309 309 310 311 311 311 311 310 309 307 306 307 306 306 305 305 306 307 308
310 306 309 311 308 309 308 310 310 309 311 315 317 315 317 315 314 313 314 313 313 309 307 306 305 307 307 308 309 310 310 310 309 309 308 306 305 305 304 304 304 303 303 305
312 310 309 307 310 308 309 312 317 320 320 320 314 314 315 316 315 312 312 310 307 305 304 305 306 306 305 306 308 308 308 308 308 308 306 305 305 303 303 303 302 302 302 302
317 319 311 309 312 315 312 314 319 323 321 320 316 315 315 314 312 310 307 305 304 304 303 301 301 302 303 304 304 304 306 307 306 305 305 304 304 303 302 302 303 302 302 303
317 317 308 306 308 311 311 313 312 314 316 318 314 314 315 315 310 307 307 307 305 303 302 302 301 301 302 302 301 301 301 303 304 305 305 305 304 303 302 301 300 300 301 303
312 315 313 309 306 307 310 310 314 312 315 317 314 314 315 315 313 308 306 304 302 300 300 299 302 301 299 299 298 299 299 299 299 300 302 303 303 303 301 299 300 299 299 299
311 314 315 313 314 314 312 310 309 310 313 316 317 316 313 312 309 306 303 301 299 298 296 295 294 296 298 298 298 297 298 298 298 297 298 299 301 302 301 301 298 297 298 298
312 314 315 314 312 311 311 313 314 317 317 314 314 314 312 311 306 300 300 299 296 294 293 293 292 292 292 293 295 297 296 296 296 297 296 296 297 299 301 301 300 298 296 296
312 313 315 315 313 309 311 311 311 312 312 314 315 314 310 307 304 299 298 296 295 294 292 290 290 291 291 291 290 291 291 292 293 294 295 296 296 296 298 299 299 298 299 296
306 308 313 314 312 310 310 312 309 307 308 309 309 308 306 304 300 297 295 294 293 293 291 289 289 289 289 289 289 289 288 289 289 290 291 291 291 292 294 297 299 298 297 297
303 307 306 306 303 302 303 303 302 302 303 303 303 302 302 298 295 294 293 291 290 292 291 289 289 289 289 288 288 287 287 287 287 287 287 289 291 290 289 292 294 299 299 297
298 301 299 299 300 300 300 299 299 299 299 299 299 299 294 294 293 292 292 290 290 291 290 288 288 288 288 288 287 287 286 286 286 287 287 287 287 287 288 289 289 292 297 298
297 298 299 299 298 295 296 297 297 297 297 296 295 296 292 291 290 290 290 290 290 291 289 288 288 288 287 287 286 286 286 285 285 285 286 286 286 286 286 286 287 288 289 294
295 294 295 295 291 294 296 293 295 296 295 295 295 292 290 290 289 289 290 291 290 290 289 288 288 288 287 287 286 286 285 285 285 285 285 285 285 285 285 285 285 284 285 288
294 294 293 293 294 293 293 293 292 292 292 294 293 291 290 289 289 289 290 289 289 289 288 288 288 287 287 287 286 285 285 284 284 284 284 284 284 284 284 284 284 284 284 284
291 293 294 287 293 292 293 290 290 289 291 290 290 291 290 289 289 290 289 288 288 288 288 288 288 287 287 286 285 284 284 283 284 282 282 282 282 283 283 284 284 284 284 284
290 290 293 294 293 292 292 290 289 290 291 289 290 289 289 291 290 289 288 288 288 288 288 287 286 285 285 284 283 282 281 281 281 280 281 281 281 281 282 282 283 283 284 284
291 289 289 284 287 290 288 289 289 291 290 289 289 289 289 289 288 288 288 288 287 286 285 285 283 282 282 281 280 279 279 279 279 278 278 278 279 280 280 280 282 282 281 282
289 290 290 289 290 290 289 289 289 289 289 289 289 289 288 287 287 286 285 284 283 282 281 280 279 279 278 278 277 277 277 277 276 276 276 276 276 276 276 277 278 279 279 278
290 290 289 290 290 290 290 290 289 289 289 289 288 287 285 283 283 283 281 280 279 277 276 275 274 274 274 274 273 273 273 273 273 273 273 272 271 271 271 272 273 274 276 276
291 289 290 290 290 290 289 289 289 288 288 287 286 284 283 281 281 278 276 276 274 273 272 271 270 270 269 268 268 267 267 267 267 267 266 266 266 266 267 268 270 271 273 274
291 290 290 291 290 290 290 290 288 287 286 284 283 283 280 278 276 275 274 272 271 270 269 267 266 265 264 264 263 262 263 263 262 262 262 263 263 263 264 265 267 269 270 271
Wind_Speed
3 7 11 17 17 15 10 14 19 19 19 20 19 18 18 31 29 33 35 28 19 17 17 20 18 14 12 10 10 12 16 18 25 33 39 44 48 51 53 54 53 53 52 51
4 11 16 5 5 10 14 16 19 16 10 4 18 23 23 21 27 30 23 20 14 13 13 17 18 18 16 14 15 17 18 18 21 27 32 39 43 49 53 55 58 58 57 56
18 10 3 9 13 13 11 13 17 19 13 14 14 15 4 6 9 16 11 11 11 10 19 21 19 19 20 20 18 17 16 16 20 23 28 33 39 45 48 53 59 62 61 60
10 5 7 4 9 11 15 11 14 12 6 9 9 13 7 11 13 11 3 3 5 9 12 12 13 19 20 21 22 21 19 16 17 19 24 30 36 41 46 48 52 56 61 63
3 3 3 6 7 10 4 2 1 2 8 9 5 7 4 5 11 6 3 8 10 15 12 10 23 21 20 19 21 21 21 21 20 19 19 23 30 34 37 41 42 47 52 56
11 1 4 4 2 5 2 2 2 1 4 7 5 7 5 4 2 2 12 18 23 24 20 17 19 22 23 23 23 21 20 20 20 19 17 18 23 27 30 35 40 43 45 49
3 6 3 5 5 3 4 4 5 6 5 10 4 10 7 10 12 8 16 25 28 26 25 27 31 32 31 31 27 23 23 22 20 18 16 17 18 20 26 30 34 37 42 45
8 12 9 8 8 6 8 8 7 6 12 20 12 17 7 3 8 16 21 20 20 23 25 26 26 27 27 28 29 29 26 22 24 23 19 17 18 21 24 27 30 35 39 40
5 12 1 5 2 5 5 6 5 8 14 12 17 29 21 18 8 14 17 21 21 20 21 22 24 27 28 29 28 28 29 27 26 27 27 24 22 21 23 25 30 33 35 35
2 11 10 3 2 3 5 3 9 6 9 19 20 22 16 15 8 7 10 12 13 17 20 21 20 23 25 26 28 28 29 30 30 29 28 28 27 26 24 25 28 30 33 35
5 6 14 5 9 17 9 8 7 7 8 12 17 17 15 5 8 6 8 8 10 13 14 16 17 21 23 26 28 29 32 33 33 33 31 31 30 28 27 27 28 30 30 31
11 9 16 28 24 14 16 21 20 9 10 12 15 21 21 7 7 10 6 5 6 9 12 15 16 18 22 25 27 29 30 31 33 34 34 32 31 31 29 28 27 27 30 30
4 3 9 9 9 0 6 10 15 18 7 21 19 13 6 14 18 15 10 4 5 9 11 13 16 17 18 21 24 26 26 28 30 32 32 34 34 33 33 32 31 26 28 27
6 3 7 12 13 16 9 6 5 5 4 9 13 20 20 17 18 17 10 10 11 9 9 14 17 17 17 18 20 23 27 28 30 30 31 31 32 32 34 33 34 33 27 27
1 10 12 14 11 8 9 10 15 15 16 9 18 22 24 13 7 13 20 17 17 14 14 19 20 20 19 19 21 23 26 29 32 33 32 33 34 33 32 32 34 34 34 29
1 3 4 7 11 14 19 20 23 24 25 26 26 26 5 5 9 13 17 21 26 21 19 23 22 23 22 23 25 27 25 27 28 30 33 35 36 36 35 34 35 36 33 34
6 5 6 12 16 14 13 17 18 20 24 15 14 7 2 3 9 17 19 20 23 21 19 25 27 27 26 24 24 25 29 31 29 29 30 32 34 36 35 35 35 35 35 36
10 4 5 8 3 12 7 5 3 6 2 4 4 7 5 6 16 22 22 23 27 24 24 26 29 32 33 35 34 32 34 35 35 35 35 36 36 37 37 36 36 36 36 35
18 11 5 4 7 11 14 6 3 2 7 10 9 8 8 14 21 25 21 21 27 28 29 28 35 37 43 43 41 42 44 43 43 40 37 37 39 41 41 40 39 39 39 38
6 13 8 4 6 8 3 4 3 3 11 7 10 9 13 19 13 15 29 24 25 29 33 38 39 43 48 47 44 46 48 47 47 41 41 41 41 42 45 47 46 44 43 43
3 3 13 11 10 7 7 3 6 6 8 3 11 19 21 14 21 31 32 29 30 29 33 35 39 45 48 45 38 42 45 48 45 46 48 46 47 49 49 49 51 52 49 47
5 6 4 2 3 9 4 6 6 11 22 30 30 31 29 30 29 31 29 26 23 25 32 42 43 47 49 40 38 41 44 45 41 41 47 54 54 53 54 55 54 54 55 52
6 8 4 8 5 4 10 19 28 29 29 31 29 28 21 21 22 22 26 29 31 30 32 34 34 40 46 42 39 41 44 39 41 42 50 54 58 63 63 61 60 59 56 49
11 15 10 11 16 23 33 28 27 29 28 25 23 23 21 21 23 31 29 30 30 31 33 35 38 42 45 41 40 39 41 37 42 46 51 54 54 56 61 61 60 55 55 46
14 7 9 14 20 27 29 27 23 18 20 18 20 20 21 22 28 27 31 32 33 33 34 35 39 42 44 42 42 41 42 44 50 53 52 50 48 47 48 49 50 48 51 46
21 18 11 14 25 21 25 22 21 17 17 18 20 23 22 24 27 29 32 32 32 36 38 38 37 39 42 43 44 43 43 43 44 44 41 39 38 39 39 41 48 44 41 41
Wind_Direction
161 209 212 232 227 258 284 272 281 279 283 291 287 285 280 280 276 266 274 284 295 295 335 357 14 13 355 343 321 298 282 273 261 256 250 245 246 246 244 244 245 243 241 237
170 233 232 292 274 246 258 270 274 282 291 291 295 296 282 266 264 264 276 286 291 317 356 21 29 24 22 6 344 327 308 287 273 263 257 253 253 250 250 247 245 242 240 239
239 259 240 214 243 250 246 261 280 284 314 281 308 287 274 257 250 272 262 269 290 340 8 19 39 38 30 23 18 10 3 348 313 289 276 264 253 252 252 251 250 245 241 239
253 277 231 211 246 237 271 264 258 277 299 298 16 297 301 269 284 270 17 332 297 4 357 13 27 19 24 19 17 16 9 354 330 308 287 272 267 264 263 259 257 255 248 242
245 168 171 210 234 182 256 46 222 228 275 304 262 265 356 169 266 309 53 20 356 329 332 40 21 27 24 19 15 11 8 3 357 341 314 290 278 271 270 268 265 260 256 248
256 145 216 237 163 189 123 293 292 232 257 257 300 238 19 16 134 107 358 349 350 25 39 25 24 22 19 15 15 10 2 1 360 360 350 325 303 292 274 268 269 266 263 257
190 211 222 187 241 161 171 273 295 270 243 269 344 285 250 299 291 335 347 10 31 30 23 17 11 10 9 7 5 2 2 358 353 352 351 341 324 304 291 277 274 270 269 264
272 273 193 166 216 260 206 235 239 267 274 288 282 265 270 88 341 34 52 60 40 32 24 16 12 10 5 2 359 360 359 357 355 351 345 338 329 316 301 290 284 278 273 274
255 250 205 232 213 206 149 210 257 272 274 281 272 270 272 238 73 58 41 23 19 18 15 11 5 3 359 356 356 353 351 350 349 349 345 340 331 318 308 299 291 283 279 278
289 284 223 181 162 218 244 331 248 226 255 252 263 267 260 286 343 63 33 26 12 4 5 1 351 346 347 347 346 344 344 343 344 343 345 344 340 325 310 299 292 288 283 279
291 252 265 265 245 261 250 250 238 267 248 251 255 260 271 3 70 19 25 23 11 14 16 9 0 356 347 344 345 345 340 338 338 341 341 341 343 340 327 309 300 293 287 281
258 275 274 271 272 266 263 259 256 249 240 227 249 258 283 312 73 66 21 20 19 22 4 354 350 353 353 348 345 341 341 340 338 337 337 338 338 343 340 330 313 299 292 285
36 233 264 269 239 71 241 252 263 267 290 254 260 257 290 322 333 23 21 48 349 343 356 352 352 351 351 345 342 341 343 342 339 338 334 335 336 337 340 339 333 316 300 292
11 229 272 275 290 314 272 230 253 268 265 295 272 283 288 297 327 336 3 344 331 328 337 348 349 345 343 340 338 337 338 337 337 338 338 339 341 339 335 332 334 334 318 298
3 266 278 278 301 298 282 286 280 270 265 259 283 285 285 329 329 327 323 327 332 324 331 339 338 338 334 329 329 331 332 331 332 332 334 331 331 336 338 332 328 326 330 319
60 278 327 286 281 275 289 280 271 269 267 264 261 269 59 331 310 310 316 325 326 321 323 331 328 326 323 322 322 323 324 324 324 324 323 324 328 330 330 333 333 326 320 326
268 262 269 270 290 310 280 260 272 276 274 293 273 293 128 332 328 321 311 303 306 297 304 322 325 323 319 312 311 312 316 316 317 316 316 317 318 321 325 330 329 326 323 315
240 223 251 276 330 257 306 31 298 286 264 200 177 186 202 314 321 309 306 292 296 284 288 306 316 316 316 314 311 309 312 312 311 311 312 313 314 315 317 321 325 328 325 318
230 237 242 251 243 302 296 241 257 290 290 215 222 207 244 297 304 297 307 295 286 279 280 289 307 311 311 310 308 311 309 310 310 307 307 306 306 309 311 312 317 321 322 319
207 220 213 167 243 265 328 167 121 142 280 193 201 242 271 306 300 298 311 301 293 286 282 287 300 305 308 308 308 306 305 305 303 303 301 300 300 300 303 306 309 312 315 316
137 194 222 231 251 272 260 184 142 267 298 132 290 289 289 284 285 287 300 295 296 291 289 294 300 303 303 305 304 300 301 298 300 300 297 295 294 296 297 298 301 305 306 308
212 182 200 163 235 271 184 145 231 293 303 304 305 302 301 300 298 300 301 299 301 296 297 299 302 302 301 299 297 295 292 295 294 292 289 292 291 290 292 294 294 297 300 301
255 219 238 212 231 240 245 268 279 286 289 292 299 303 301 298 302 303 303 302 301 301 301 300 298 295 294 296 296 293 292 294 292 284 282 286 289 290 290 290 290 291 293 295
251 241 247 266 250 256 266 275 280 284 286 289 286 292 298 302 305 303 304 305 306 306 304 303 301 299 296 297 294 291 291 292 283 280 281 284 287 289 289 290 289 288 286 285
241 207 228 250 260 269 269 271 276 279 277 280 288 295 301 305 305 305 304 306 308 307 306 304 301 298 296 297 294 291 289 287 285 286 288 289 288 288 288 287 285 281 276 274
238 240 239 252 263 263 273 288 282 276 281 286 294 301 305 307 306 309 307 308 308 308 309 309 308 303 302 301 300 301 302 300 295 293 293 291 289 287 286 285 287 280 274 273